"startDT [UTC]","vpos","CH4 [ppm]","stdev(CH4) [ppm]","CO2 [ppm]","stdev(CO2) [ppm]","H2O_reported [%]","stdev(H2O_reported)","CavityPressure [torr]","CavityTemp [C]","OutletValve","CH4_dry [ppm]","CO2_dry [ppm]","DasTemp [C]","EtalonTemp [C]","WarmBoxTemp [C]","MPVPosition","T_ECpre [C]","T_EC1 [C]","T_EC2 [C]","p_inlet [hPa]","p_in [hPa]","p_out [hPa]","T_inlet [C]","RH_inlet [%]","dwpt_inlet [C]","T_vent [C]","RH_vent [%]","dwpt_vent [C]","flow_vent [l min-1]","flow_inlet [l min-1]","dwpt_sample [C]","T_room [C]"
2016-04-09 00:00:00,3.0,1.88462,0.02235,399.582,3.435,0.0354,0.0496,139.998,45.000,31529.58786,1.88754,399.946,30.874,45.072,45.000,0.00,0.09,-272.73,-272.79,1,514,-949,14.7,6.8,-21.0,14.9,7.0,-20.7,5.73,2.09,-20.1,21.6
2016-04-09 00:01:00,3.0,1.87600,0.00047,397.292,0.062,0.0075,0.0024,140.002,45.000,31525.16459,1.87612,397.331,30.874,45.072,45.000,0.00,0.08,-272.75,-272.79,1,514,-949,14.7,6.8,-21.0,14.9,6.9,-20.8,5.73,2.09,-20.1,21.6
2016-04-09 00:02:00,3.0,1.87594,0.00052,397.461,0.088,0.0085,0.0019,139.998,45.000,31523.21072,1.87614,397.497,30.874,45.072,45.000,0.00,0.08,-272.74,-272.79,0,514,-949,14.8,7.2,-20.3,14.9,7.2,-20.3,5.73,1.92,-20.1,21.6
2016-04-09 00:03:00,3.0,1.87552,0.00033,397.611,0.046,0.0080,0.0019,139.998,45.000,31521.24756,1.87566,397.648,30.861,45.072,45.000,0.00,0.09,-272.73,-272.79,0,514,-949,14.8,7.5,-20.0,14.9,7.5,-19.8,5.73,1.93,-20.1,21.6
2016-04-09 00:04:00,3.0,1.87572,0.00040,397.609,0.027,0.0072,0.0018,140.002,45.000,31521.43366,1.87582,397.644,30.842,45.072,45.000,0.00,0.08,-272.74,-272.79,1,513,-949,14.8,7.6,-19.8,15.0,7.6,-19.6,5.73,2.09,-20.1,21.6
2016-04-09 00:05:00,3.0,1.87571,0.00032,397.621,0.034,0.0053,0.0026,139.998,45.000,31518.15992,1.87582,397.648,30.852,45.072,45.000,0.00,0.08,-272.75,-272.79,1,513,-949,14.8,8.0,-19.2,15.0,7.9,-19.1,5.73,2.10,-20.1,21.6
2016-04-09 00:06:00,3.0,1.87587,0.00035,397.638,0.031,0.0037,0.0016,139.997,45.000,31516.65910,1.87596,397.656,30.867,45.072,45.001,0.00,0.09,-272.73,-272.79,0,513,-949,14.8,8.3,-18.7,15.0,8.3,-18.6,5.73,1.94,-20.1,21.6
2016-04-09 00:07:00,3.0,1.87585,0.00036,397.619,0.037,0.0033,0.0017,139.998,45.000,31517.55932,1.87587,397.635,30.870,45.072,45.000,0.00,0.09,-272.73,-272.79,1,513,-949,14.9,8.5,-18.4,15.0,8.5,-18.3,5.73,1.91,-20.1,21.7
2016-04-09 00:08:00,3.0,1.87607,0.00045,397.634,0.031,0.0023,0.0021,139.999,45.000,31516.02876,1.87611,397.645,30.876,45.072,45.000,0.00,0.08,-272.74,-272.80,1,513,-949,14.9,8.6,-18.2,15.1,8.6,-18.1,5.73,2.07,-20.1,21.7
2016-04-09 00:09:00,3.0,1.87600,0.00056,397.647,0.032,0.0021,0.0018,139.999,45.000,31515.31358,1.87609,397.657,30.885,45.072,45.000,0.00,0.08,-272.74,-272.79,-0,513,-949,15.0,8.4,-18.4,15.1,8.5,-18.2,5.73,2.12,-20.1,21.7
2016-04-09 00:10:00,3.0,1.87607,0.00031,397.644,0.035,0.0017,0.0014,139.998,45.000,31514.84206,1.87606,397.650,30.908,45.072,45.000,0.00,0.09,-272.73,-272.79,1,513,-949,15.0,8.5,-18.2,15.1,8.6,-18.1,5.73,1.97,-20.0,21.7
2016-04-09 00:11:00,3.0,1.87622,0.00041,397.654,0.028,0.0013,0.0020,139.999,45.000,31513.99043,1.87622,397.661,30.904,45.072,45.000,0.00,0.09,-272.74,-272.80,1,513,-949,15.1,8.6,-18.1,15.2,8.7,-18.0,5.73,1.90,-20.0,21.7
2016-04-09 00:12:00,3.0,1.87615,0.00037,397.641,0.025,0.0013,0.0016,139.998,45.000,31513.60436,1.87618,397.648,30.938,45.072,45.000,0.00,0.08,-272.75,-272.80,-0,513,-949,15.1,8.4,-18.3,15.2,8.5,-18.1,5.73,2.04,-20.0,21.7
2016-04-09 00:13:00,3.0,1.87601,0.00050,397.641,0.023,0.0013,0.0020,140.002,45.000,31516.07949,1.87604,397.646,30.938,45.072,45.000,0.00,0.09,-272.74,-272.79,0,513,-949,15.2,8.3,-18.4,15.2,8.4,-18.2,5.73,2.13,-20.0,21.8
2016-04-09 00:14:00,3.0,1.87603,0.00034,397.640,0.024,0.0004,0.0014,140.002,45.000,31516.95570,1.87604,397.643,30.938,45.071,45.000,0.00,0.09,-272.74,-272.79,1,513,-949,15.2,7.9,-19.0,15.3,8.2,-18.6,5.73,1.99,-20.0,21.8
2016-04-09 00:15:00,3.0,1.87601,0.00036,397.627,0.026,0.0000,0.0021,140.003,45.000,31518.29562,1.87601,397.626,30.932,45.072,45.000,0.00,0.08,-272.74,-272.79,0,513,-949,15.3,7.2,-20.0,15.3,7.5,-19.6,5.73,1.89,-20.0,21.8
2016-04-09 00:16:00,3.0,1.87603,0.00052,397.662,0.028,0.0007,0.0017,140.000,45.000,31517.78898,1.87605,397.666,30.895,45.072,45.000,0.00,0.08,-272.73,-272.79,-0,513,-949,15.3,6.6,-21.0,15.3,6.9,-20.5,5.73,2.02,-20.0,21.8
2016-04-09 00:17:00,3.0,1.87595,0.00038,397.633,0.037,0.0008,0.0026,139.998,45.000,31518.97705,1.87596,397.636,30.876,45.072,45.000,0.00,0.09,-272.73,-272.78,1,513,-949,15.3,6.2,-21.8,15.3,6.4,-21.3,5.73,2.12,-20.0,21.8
2016-04-09 00:18:00,3.0,1.87581,0.00038,397.638,0.035,0.0006,0.0018,140.001,45.000,31520.40357,1.87585,397.640,30.878,45.072,45.000,0.00,0.08,-272.74,-272.79,1,513,-949,15.4,5.8,-22.3,15.4,6.1,-21.9,5.73,2.02,-20.0,21.9
2016-04-09 00:19:00,3.0,1.87560,0.00049,397.643,0.035,0.0003,0.0018,139.999,45.000,31521.18218,1.87559,397.646,30.884,45.072,45.001,0.00,0.09,-272.74,-272.79,-0,513,-949,15.4,5.5,-22.9,15.4,5.8,-22.5,5.73,1.90,-20.0,21.9
2016-04-09 00:20:00,0.0,1.92983,0.01988,406.114,3.442,0.0950,0.0416,140.004,45.000,31548.52283,1.92923,406.373,30.889,45.072,45.001,0.00,0.09,-272.72,-272.80,-1,517,-949,15.4,5.2,-23.5,15.4,5.5,-23.0,5.73,1.95,-19.9,21.9
2016-04-09 00:21:00,0.0,1.93795,0.00043,407.669,0.035,0.1155,0.0016,140.003,45.000,31561.82749,1.94015,408.237,30.892,45.072,45.001,0.00,0.08,-272.74,-272.79,-1,519,-949,15.5,5.0,-23.9,15.5,5.3,-23.3,5.73,2.17,-20.0,21.9
2016-04-09 00:22:00,0.0,1.93781,0.00045,407.660,0.031,0.1143,0.0016,139.996,45.000,31564.99550,1.94002,408.222,30.902,45.072,45.000,0.00,0.08,-272.74,-272.80,-2,519,-949,15.5,4.9,-24.1,15.5,5.1,-23.7,5.73,1.92,-20.0,22.0
2016-04-09 00:23:00,0.0,1.93736,0.00036,407.614,0.041,0.1128,0.0013,139.997,45.000,31569.69029,1.93950,408.169,30.916,45.072,45.000,0.00,0.09,-272.73,-272.79,-0,519,-949,15.6,4.9,-24.3,15.5,5.0,-23.9,5.73,1.99,-20.0,22.0
2016-04-09 00:24:00,0.0,1.93751,0.00039,407.623,0.038,0.1106,0.0016,139.996,45.000,31572.05770,1.93963,408.166,30.931,45.072,45.000,0.00,0.09,-272.74,-272.79,-1,520,-949,15.6,4.8,-24.4,15.6,5.0,-24.0,5.73,2.18,-19.9,22.0
2016-04-09 00:25:00,0.0,1.93718,0.00031,407.631,0.031,0.1106,0.0011,139.998,45.000,31575.78441,1.93930,408.174,30.934,45.072,45.000,0.00,0.08,-272.74,-272.80,-1,520,-949,15.6,4.7,-24.5,15.6,4.9,-24.1,5.73,1.96,-19.9,22.0
2016-04-09 00:26:00,0.0,1.93761,0.00041,407.622,0.026,0.1095,0.0020,140.000,45.000,31577.55792,1.93968,408.158,30.938,45.072,45.000,0.00,0.09,-272.74,-272.79,-0,520,-949,15.6,4.7,-24.6,15.6,4.9,-24.2,5.73,1.95,-19.9,22.0
2016-04-09 00:27:00,0.0,1.93774,0.00047,407.658,0.028,0.1090,0.0017,139.999,45.000,31578.23749,1.93982,408.194,30.964,45.072,45.000,0.00,0.09,-272.74,-272.79,-2,521,-949,15.6,4.7,-24.6,15.7,4.8,-24.3,5.73,2.17,-19.9,22.1
2016-04-09 00:28:00,0.0,1.93772,0.00040,407.649,0.034,0.1096,0.0016,139.998,45.000,31580.00214,1.93980,408.187,30.981,45.072,45.000,0.00,0.26,-271.47,-272.42,-1,520,-949,15.7,4.7,-24.6,15.7,4.8,-24.3,5.43,2.07,-24.8,22.1
2016-04-09 00:29:00,0.0,1.93735,0.00046,407.633,0.031,0.1105,0.0018,140.000,45.000,31583.37696,1.93949,408.175,30.998,45.071,45.000,0.00,0.09,-272.74,-272.80,-0,521,-949,15.7,4.7,-24.6,15.7,4.8,-24.2,5.73,1.90,-19.9,22.1
2016-04-09 00:30:00,0.0,1.93741,0.00042,407.619,0.031,0.1108,0.0016,139.999,45.000,31584.75387,1.93953,408.164,31.001,45.071,45.000,0.00,0.09,-272.74,-272.79,-2,521,-949,15.7,4.7,-24.5,15.7,4.8,-24.2,5.73,2.14,-19.9,22.1
2016-04-09 00:31:00,0.0,1.93697,0.00046,407.642,0.027,0.1123,0.0015,140.000,45.000,31586.55206,1.93911,408.192,31.003,45.071,45.000,0.00,0.09,-272.74,-272.79,-0,521,-949,15.7,4.8,-24.4,15.7,4.9,-24.1,5.73,2.09,-19.9,22.1
2016-04-09 00:32:00,0.0,1.93707,0.00047,407.636,0.036,0.1128,0.0018,139.999,45.000,31588.32472,1.93924,408.189,31.007,45.072,45.000,0.00,0.08,-272.74,-272.80,-1,521,-949,15.7,4.8,-24.3,15.7,4.9,-24.0,5.73,1.88,-19.8,22.1
2016-04-09 00:33:00,0.0,1.93702,0.00039,407.660,0.025,0.1137,0.0014,139.999,45.000,31588.67262,1.93920,408.219,31.019,45.071,45.000,0.00,0.09,-272.73,-272.79,-2,521,-949,15.7,4.8,-24.2,15.7,4.9,-24.0,5.73,2.07,-19.9,22.1
2016-04-09 00:34:00,0.0,1.93700,0.00046,407.692,0.031,0.1143,0.0019,140.001,45.000,31589.11786,1.93913,408.253,31.038,45.071,45.000,0.00,0.09,-272.74,-272.79,-0,521,-949,15.6,4.9,-24.2,15.7,5.0,-23.9,5.73,2.15,-19.8,22.1
2016-04-09 00:35:00,0.0,1.93702,0.00036,407.708,0.036,0.1146,0.0015,139.999,45.000,31589.82744,1.93920,408.269,31.023,45.071,45.000,0.00,0.08,-272.74,-272.80,-1,522,-949,15.7,4.9,-24.1,15.7,5.0,-23.9,5.73,1.91,-19.9,22.1
2016-04-09 00:36:00,0.0,1.93699,0.00046,407.712,0.026,0.1155,0.0014,139.998,45.000,31591.65500,1.93922,408.281,31.032,45.072,45.000,0.00,0.09,-272.74,-272.80,-1,521,-949,15.7,4.9,-24.1,15.7,5.0,-23.9,5.73,1.99,-19.8,22.1
2016-04-09 00:37:00,0.0,1.93711,0.00027,407.829,0.053,0.1150,0.0016,139.999,45.000,31591.57596,1.93930,408.392,31.042,45.072,45.000,0.00,0.09,-272.74,-272.80,-0,522,-949,15.7,4.9,-24.1,15.8,5.0,-23.8,5.73,2.17,-19.8,22.2
2016-04-09 00:38:00,0.0,1.93687,0.00035,407.739,0.048,0.1150,0.0014,140.002,45.000,31594.88675,1.93907,408.305,31.063,45.072,45.000,0.00,0.09,-272.74,-272.80,-2,522,-949,15.7,4.9,-24.1,15.8,5.0,-23.8,5.73,1.98,-19.8,22.2
2016-04-09 00:39:00,0.0,1.93697,0.00036,407.761,0.043,0.1148,0.0017,139.999,45.000,31593.99399,1.93915,408.326,31.063,45.072,45.000,0.00,0.09,-272.74,-272.80,-1,522,-949,15.7,4.9,-24.1,15.8,5.0,-23.8,5.73,1.92,-19.8,22.2
2016-04-09 00:40:00,0.0,1.93760,0.00037,407.724,0.059,0.1142,0.0017,139.997,45.000,31591.25345,1.93976,408.283,31.070,45.071,45.000,0.00,0.09,-272.74,-272.79,-0,522,-949,15.7,4.8,-24.2,15.8,5.0,-23.9,5.73,2.14,-19.8,22.2
2016-04-09 00:41:00,0.0,1.93735,0.00041,407.741,0.025,0.1154,0.0018,139.999,45.000,31593.90247,1.93956,408.308,31.105,45.072,45.000,0.00,0.08,-272.74,-272.79,-2,522,-949,15.7,4.9,-24.1,15.8,5.0,-23.8,5.73,2.07,-19.8,22.2
2016-04-09 00:42:00,0.0,1.93735,0.00035,407.721,0.030,0.1146,0.0017,140.000,45.000,31596.97488,1.93954,408.285,31.089,45.071,45.000,0.00,0.09,-272.74,-272.80,-1,522,-949,15.7,4.9,-24.1,15.8,5.0,-23.8,5.73,1.89,-19.8,22.2
2016-04-09 00:43:00,0.0,1.93749,0.00035,407.765,0.031,0.1156,0.0011,140.002,45.000,31597.87161,1.93971,408.332,31.123,45.072,45.000,0.00,0.09,-272.74,-272.79,-1,522,-949,15.7,4.9,-24.1,15.8,5.0,-23.8,5.73,2.08,-19.8,22.2
2016-04-09 00:44:00,0.0,1.93730,0.00037,407.745,0.032,0.1138,0.0020,140.000,45.000,31598.79202,1.93949,408.305,31.147,45.071,45.000,0.00,0.09,-272.73,-272.79,-2,522,-949,15.7,4.9,-24.2,15.8,5.0,-23.9,5.73,2.14,-19.8,22.2
2016-04-09 00:45:00,0.0,1.93705,0.00036,407.738,0.032,0.1145,0.0017,140.003,45.000,31600.70652,1.93925,408.301,31.186,45.071,45.000,0.00,0.09,-272.74,-272.80,-0,522,-949,15.7,4.9,-24.2,15.8,5.0,-23.9,5.73,1.91,-19.8,22.3
2016-04-09 00:46:00,0.0,1.93707,0.00031,407.746,0.038,0.1148,0.0019,140.002,45.000,31602.51923,1.93925,408.309,31.187,45.071,45.000,0.00,0.08,-272.74,-272.80,-1,523,-949,15.7,4.9,-24.2,15.8,5.0,-23.9,5.73,1.98,-19.8,22.2
2016-04-09 00:47:00,0.0,1.93689,0.00042,408.050,0.064,0.1167,0.0016,139.994,45.000,31600.72800,1.93911,408.620,31.189,45.071,45.000,0.00,0.08,-272.73,-272.79,-2,522,-949,15.7,4.9,-24.0,15.8,5.0,-23.8,5.73,2.17,-19.8,22.3
2016-04-09 00:48:00,0.0,1.93702,0.00032,407.932,0.033,0.1206,0.0018,139.998,45.000,31600.39881,1.93929,408.526,31.187,45.071,45.000,0.00,0.09,-272.74,-272.79,-0,522,-949,15.6,5.1,-23.7,15.8,5.1,-23.6,5.73,1.99,-19.7,22.3
2016-04-09 00:49:00,0.0,1.93677,0.00036,407.896,0.024,0.1265,0.0027,140.001,45.000,31602.60417,1.93923,408.517,31.187,45.071,45.000,0.00,0.09,-272.74,-272.80,-2,522,-949,15.6,5.3,-23.1,15.8,5.3,-23.1,5.73,1.91,-19.8,22.2
2016-04-09 00:50:00,0.0,1.93676,0.00041,407.992,0.054,0.1346,0.0023,140.002,45.000,31605.26750,1.93932,408.651,31.194,45.071,45.000,0.00,0.09,-272.73,-272.80,-2,522,-949,15.6,5.7,-22.4,15.8,5.6,-22.5,5.73,2.13,-19.7,22.3
2016-04-09 00:51:00,0.0,1.93681,0.00030,408.042,0.055,0.1457,0.0034,139.999,45.000,31603.72587,1.93958,408.758,31.237,45.072,45.000,0.00,0.09,-272.74,-272.80,-0,522,-949,15.6,6.2,-21.6,15.8,6.0,-21.7,5.73,2.08,-19.7,22.3
2016-04-09 00:52:00,0.0,1.93648,0.00055,407.903,0.045,0.1578,0.0038,140.001,45.000,31605.20846,1.93955,408.680,31.250,45.071,45.000,0.00,0.09,-272.74,-272.81,-2,523,-949,15.6,6.7,-20.6,15.8,6.5,-20.8,5.73,1.89,-19.7,22.3
2016-04-09 00:53:00,0.0,1.93586,0.00033,407.832,0.041,0.1658,0.0017,140.004,45.000,31607.58712,1.93900,408.648,31.259,45.071,45.000,0.00,0.09,-272.74,-272.80,-1,522,-949,15.6,7.1,-19.9,15.8,7.0,-20.0,5.73,2.05,-19.7,22.3
2016-04-09 00:54:00,0.0,1.93607,0.00036,407.801,0.038,0.1671,0.0013,140.001,45.000,31604.91073,1.93927,408.623,31.276,45.071,45.000,0.00,0.09,-272.74,-272.78,-1,523,-949,15.6,7.2,-19.7,15.8,7.2,-19.6,5.73,2.15,-19.7,22.3
2016-04-09 00:55:00,0.0,1.93576,0.00045,407.990,0.101,0.1736,0.0042,139.997,45.000,31605.25326,1.93909,408.837,31.286,45.071,45.000,0.00,0.09,-272.75,-272.79,-2,523,-949,15.6,7.4,-19.4,15.8,7.3,-19.4,5.73,1.94,-19.7,22.3
2016-04-09 00:56:00,0.0,1.93572,0.00046,408.147,0.066,0.1864,0.0034,139.997,45.000,31606.86163,1.93929,409.060,31.272,45.071,45.000,0.00,0.08,-272.74,-272.80,-1,522,-949,15.6,7.9,-18.7,15.8,7.8,-18.8,5.73,1.94,-19.7,22.3
2016-04-09 00:57:00,0.0,1.93558,0.00045,408.258,0.062,0.1961,0.0037,140.001,45.000,31607.76503,1.93933,409.225,31.264,45.071,45.000,0.00,0.09,-272.74,-272.79,-1,523,-949,15.6,8.4,-18.0,15.8,8.2,-18.1,5.73,2.15,-19.7,22.3
2016-04-09 00:58:00,0.0,1.93518,0.00046,408.036,0.189,0.2051,0.0026,140.000,45.000,31607.87451,1.93911,409.052,31.283,45.072,45.000,0.00,0.09,-272.74,-272.79,-2,523,-949,15.6,8.7,-17.5,15.8,8.6,-17.6,5.73,2.05,-19.7,22.3
2016-04-09 00:59:00,0.0,1.93543,0.00049,408.178,0.133,0.2090,0.0017,140.001,45.000,31610.20060,1.93938,409.204,31.310,45.072,45.000,0.00,0.08,-272.74,-272.80,-1,523,-949,15.6,8.9,-17.2,15.8,8.8,-17.2,5.73,1.89,-19.7,22.3
2016-04-09 01:00:00,0.0,1.93677,0.00056,408.354,0.070,0.2003,0.0057,139.999,45.000,31608.62483,1.94060,409.344,31.320,45.072,45.000,0.00,0.08,-272.74,-272.79,-1,523,-949,15.6,8.6,-17.7,15.8,8.7,-17.4,5.73,2.07,-19.7,22.3
2016-04-09 01:01:00,0.0,1.93695,0.00046,408.325,0.060,0.1883,0.0021,139.999,45.000,31608.32587,1.94055,409.255,31.344,45.072,45.000,0.00,0.09,-272.74,-272.79,-2,523,-949,15.7,8.1,-18.3,15.8,8.3,-18.0,5.73,2.15,-19.6,22.3
2016-04-09 01:02:00,0.0,1.93743,0.00030,408.140,0.082,0.1870,0.0033,140.001,45.000,31611.02381,1.94099,409.067,31.371,45.071,45.000,0.00,0.09,-272.75,-272.80,-0,523,-949,15.6,8.0,-18.5,15.8,8.1,-18.2,5.73,1.92,-19.7,22.3
2016-04-09 01:03:00,0.0,1.93784,0.00051,408.034,0.140,0.1766,0.0054,139.999,45.000,31611.84305,1.94123,408.906,31.375,45.071,45.000,0.00,0.09,-272.74,-272.80,-1,523,-949,15.7,7.6,-19.1,15.8,7.8,-18.7,5.73,1.97,-19.6,22.4
2016-04-09 01:04:00,0.0,1.93796,0.00059,408.034,0.051,0.1655,0.0017,140.001,45.000,31616.08671,1.94106,408.850,31.375,45.071,45.000,0.00,0.09,-272.74,-272.79,-1,523,-949,15.6,7.1,-19.9,15.8,7.3,-19.5,5.73,2.17,-19.6,22.3
2016-04-09 01:05:00,0.0,1.93830,0.00045,408.075,0.075,0.1590,0.0036,139.998,45.000,31614.43905,1.94136,408.860,31.367,45.071,45.000,0.00,0.09,-272.74,-272.80,-0,523,-949,15.6,6.8,-20.4,15.8,7.0,-20.0,5.73,2.02,-19.6,22.3
2016-04-09 01:06:00,0.0,1.93831,0.00030,408.014,0.049,0.1531,0.0023,139.998,45.000,31615.53260,1.94124,408.768,31.352,45.071,45.000,0.00,0.09,-272.75,-272.80,-1,523,-949,15.6,6.6,-20.8,15.8,6.7,-20.4,5.73,1.90,-19.6,22.4
2016-04-09 01:07:00,0.0,1.93804,0.00062,408.065,0.104,0.1516,0.0021,139.999,45.000,31616.16158,1.94101,408.805,31.334,45.072,45.000,0.00,0.08,-272.74,-272.79,-1,523,-949,15.6,6.5,-21.0,15.8,6.6,-20.7,5.73,2.10,-19.6,22.3
2016-04-09 01:08:00,0.0,1.93610,0.00064,408.247,0.135,0.1607,0.0045,140.000,45.000,31617.65341,1.93921,409.042,31.349,45.072,45.000,0.00,0.09,-272.74,-272.79,-0,523,-949,15.6,6.8,-20.4,15.8,6.7,-20.4,5.73,2.11,-19.6,22.4
2016-04-09 01:09:00,0.0,1.93560,0.00048,408.093,0.131,0.1701,0.0022,140.000,45.000,31616.52060,1.93886,408.926,31.374,45.072,45.000,0.00,0.09,-272.75,-272.80,-1,523,-949,15.5,7.3,-19.7,15.8,7.1,-19.7,5.73,1.90,-19.6,22.3
2016-04-09 01:10:00,0.0,1.93598,0.00053,408.402,0.126,0.1732,0.0027,140.000,45.000,31615.11665,1.93926,409.249,31.372,45.072,45.000,0.00,0.08,-272.74,-272.80,-1,523,-949,15.5,7.4,-19.5,15.8,7.4,-19.3,5.73,2.03,-19.6,22.3
2016-04-09 01:11:00,0.0,1.93802,0.00140,408.174,0.344,0.1637,0.0028,139.999,45.000,31613.46146,1.94104,408.999,31.376,45.072,45.000,0.00,0.09,-272.74,-272.79,-0,523,-949,15.5,7.1,-19.9,15.8,7.3,-19.5,5.73,2.16,-19.6,22.4
2016-04-09 01:12:00,0.0,1.93961,0.00035,407.738,0.072,0.1531,0.0035,139.998,45.000,31614.22275,1.94254,408.488,31.376,45.072,45.000,0.00,0.09,-272.74,-272.80,-2,523,-949,15.5,6.6,-20.8,15.8,6.8,-20.3,5.73,1.95,-19.6,22.3
2016-04-09 01:13:00,0.0,1.94049,0.00039,407.868,0.059,0.1430,0.0024,139.997,45.000,31612.43993,1.94321,408.574,31.376,45.072,45.000,0.00,0.08,-272.74,-272.80,-1,523,-949,15.5,6.2,-21.5,15.8,6.4,-21.0,5.73,1.94,-19.6,22.3
2016-04-09 01:14:00,0.0,1.94010,0.00037,407.824,0.041,0.1500,0.0033,139.993,45.000,31612.98149,1.94298,408.560,31.406,45.072,45.000,0.00,0.08,-272.74,-272.79,-1,523,-949,15.5,6.4,-21.3,15.8,6.4,-21.1,5.73,2.15,-19.6,22.3
2016-04-09 01:15:00,0.0,1.93966,0.00041,407.834,0.067,0.1571,0.0014,140.000,45.000,31614.28661,1.94269,408.606,31.415,45.072,45.000,0.00,0.09,-272.74,-272.79,-2,523,-949,15.5,6.7,-20.7,15.8,6.6,-20.6,5.73,2.06,-19.6,22.3
2016-04-09 01:16:00,0.0,1.93956,0.00053,407.808,0.049,0.1551,0.0015,139.999,45.000,31614.95578,1.94251,408.575,31.430,45.071,45.000,0.00,0.09,-272.74,-272.81,-1,523,-949,15.5,6.7,-20.7,15.8,6.7,-20.5,5.73,1.89,-19.6,22.3
2016-04-09 01:17:00,0.0,1.93992,0.00044,407.768,0.036,0.1501,0.0025,140.001,45.000,31615.39446,1.94281,408.507,31.426,45.071,45.000,0.00,0.09,-272.74,-272.80,-1,523,-949,15.5,6.5,-21.0,15.8,6.6,-20.7,5.73,2.07,-19.6,22.3
2016-04-09 01:18:00,0.0,1.93914,0.00069,408.041,0.227,0.1515,0.0024,140.001,45.000,31614.18434,1.94203,408.780,31.387,45.071,45.000,0.00,0.09,-272.74,-272.79,-2,523,-949,15.5,6.5,-21.0,15.8,6.5,-20.8,5.73,2.15,-19.5,22.3
2016-04-09 01:19:00,0.0,1.93930,0.00057,408.200,0.112,0.1448,0.0038,139.999,45.000,31615.12103,1.94213,408.908,31.376,45.072,45.000,0.00,0.08,-272.74,-272.80,-1,523,-949,15.5,6.3,-21.5,15.8,6.4,-21.0,5.73,1.93,-19.5,22.3
2016-04-09 01:20:00,0.0,1.93971,0.00064,408.153,0.149,0.1379,0.0020,139.999,45.000,31617.05058,1.94231,408.841,31.375,45.072,45.000,0.00,0.09,-272.74,-272.80,-1,523,-949,15.5,5.9,-22.0,15.8,6.1,-21.6,5.73,1.96,-19.5,22.3
2016-04-09 01:21:00,0.0,1.94047,0.00059,407.794,0.041,0.1353,0.0024,140.000,45.000,31616.31003,1.94309,408.460,31.372,45.072,45.000,0.00,0.08,-272.74,-272.79,-2,523,-949,15.5,5.8,-22.3,15.8,5.9,-21.9,5.73,2.16,-19.5,22.3
2016-04-09 01:22:00,0.0,1.94025,0.00051,407.811,0.024,0.1336,0.0015,140.001,45.000,31616.22380,1.94278,408.469,31.368,45.072,45.001,0.00,0.09,-272.75,-272.79,-1,522,-949,15.5,5.7,-22.6,15.8,5.8,-22.2,5.73,2.01,-19.5,22.3
2016-04-09 01:23:00,0.0,1.94002,0.00042,407.837,0.037,0.1303,0.0014,139.998,45.000,31615.26485,1.94252,408.477,31.344,45.072,45.000,0.00,0.09,-272.74,-272.80,-2,523,-949,15.5,5.6,-22.8,15.8,5.7,-22.4,5.73,1.89,-19.5,22.3
2016-04-09 01:24:00,0.0,1.94030,0.00032,407.843,0.031,0.1301,0.0020,140.000,45.000,31616.11063,1.94280,408.484,31.361,45.072,45.000,0.00,0.09,-272.74,-272.79,-2,522,-949,15.5,5.6,-22.8,15.7,5.6,-22.5,5.73,2.11,-19.5,22.4
2016-04-09 01:25:00,0.0,1.93985,0.00067,407.849,0.038,0.1357,0.0029,139.999,45.000,31616.05498,1.94246,408.514,31.375,45.072,45.000,0.00,0.08,-272.74,-272.80,-1,523,-949,15.5,5.8,-22.4,15.7,5.7,-22.3,5.73,2.10,-19.5,22.3
2016-04-09 01:26:00,0.0,1.93917,0.00027,407.821,0.027,0.1428,0.0017,139.998,45.000,31614.75258,1.94192,408.522,31.378,45.071,45.000,0.00,0.08,-272.74,-272.80,-2,523,-949,15.4,6.1,-21.7,15.7,6.1,-21.7,5.73,1.89,-19.5,22.3
2016-04-09 01:27:00,0.0,1.93982,0.00047,407.843,0.028,0.1370,0.0033,139.997,45.000,31614.26374,1.94242,408.519,31.393,45.071,45.000,0.00,0.08,-272.73,-272.80,-2,522,-949,15.4,5.9,-22.1,15.7,6.0,-21.8,5.73,2.03,-19.5,22.3
2016-04-09 01:28:00,0.0,1.93971,0.00041,407.829,0.041,0.1304,0.0022,139.996,45.000,31614.90578,1.94221,408.471,31.385,45.071,45.000,0.00,0.08,-272.74,-272.79,-1,523,-949,15.4,5.7,-22.6,15.7,5.8,-22.2,5.73,2.16,-19.5,22.3
2016-04-09 01:29:00,0.0,1.93982,0.00048,407.885,0.062,0.1302,0.0018,140.001,45.000,31616.32045,1.94227,408.524,31.400,45.071,45.000,0.00,0.08,-272.74,-272.80,-2,522,-949,15.4,5.6,-22.8,15.7,5.6,-22.5,5.73,1.94,-19.5,22.3
2016-04-09 01:30:00,0.0,1.94023,0.00048,407.869,0.031,0.1298,0.0018,139.998,45.000,31617.12065,1.94271,408.508,31.429,45.071,45.000,0.00,0.09,-272.74,-272.80,-1,522,-949,15.4,5.6,-22.8,15.7,5.6,-22.5,5.73,1.94,-19.5,22.3
2016-04-09 01:31:00,0.0,1.93945,0.00043,407.862,0.031,0.1309,0.0023,139.998,45.000,31616.53888,1.94202,408.506,31.421,45.071,45.000,0.00,0.09,-272.74,-272.80,-1,523,-949,15.4,5.6,-22.8,15.7,5.6,-22.5,5.73,2.15,-19.5,22.3
2016-04-09 01:32:00,0.0,1.93981,0.00055,407.846,0.035,0.1354,0.0023,139.999,45.000,31614.54813,1.94239,408.511,31.437,45.071,45.000,0.00,0.09,-272.74,-272.80,-2,522,-949,15.4,5.8,-22.4,15.7,5.8,-22.3,5.73,2.05,-19.5,22.3
2016-04-09 01:33:00,0.0,1.94034,0.00049,407.787,0.052,0.1380,0.0016,139.998,45.000,31615.03579,1.94291,408.468,31.439,45.071,45.000,0.00,0.08,-272.74,-272.80,-1,522,-949,15.4,5.9,-22.1,15.7,5.9,-21.9,5.73,1.88,-19.5,22.3
2016-04-09 01:34:00,0.0,1.93994,0.00042,407.795,0.033,0.1412,0.0019,140.000,45.000,31616.76557,1.94270,408.486,31.446,45.071,45.000,0.00,0.08,-272.74,-272.79,-1,522,-949,15.5,6.1,-21.9,15.7,6.0,-21.8,5.73,2.08,-19.5,22.3
2016-04-09 01:35:00,0.0,1.93988,0.00036,407.802,0.030,0.1440,0.0018,140.000,45.000,31616.74519,1.94260,408.511,31.443,45.071,45.000,0.00,0.08,-272.75,-272.79,-2,522,-949,15.5,6.2,-21.6,15.7,6.2,-21.5,5.73,2.13,-19.5,22.3
2016-04-09 01:36:00,0.0,1.93978,0.00047,407.799,0.028,0.1458,0.0015,139.999,45.000,31616.45048,1.94259,408.516,31.445,45.071,45.000,0.00,0.08,-272.75,-272.80,-1,522,-949,15.5,6.3,-21.4,15.7,6.3,-21.3,5.73,1.90,-19.5,22.3
2016-04-09 01:37:00,0.0,1.93972,0.00056,407.761,0.035,0.1451,0.0021,139.996,45.000,31617.34724,1.94247,408.476,31.441,45.072,45.000,0.00,0.08,-272.74,-272.79,-2,523,-949,15.5,6.3,-21.4,15.8,6.3,-21.2,5.73,2.00,-19.5,22.3
2016-04-09 01:38:00,0.0,1.93991,0.00036,407.786,0.021,0.1458,0.0018,139.997,45.000,31616.85890,1.94275,408.504,31.439,45.072,45.000,0.00,0.08,-272.74,-272.79,-2,522,-949,15.5,6.3,-21.4,15.8,6.3,-21.2,5.73,2.17,-19.4,22.3
2016-04-09 01:39:00,0.0,1.93951,0.00025,407.781,0.036,0.1428,0.0012,139.998,45.000,31619.37115,1.94226,408.483,31.438,45.072,45.000,0.00,0.08,-272.75,-272.80,-1,522,-949,15.5,6.2,-21.6,15.8,6.2,-21.3,5.73,1.94,-19.4,22.3
2016-04-09 01:40:00,0.0,1.93924,0.00035,407.827,0.076,0.1403,0.0028,140.002,45.000,31619.86211,1.94189,408.514,31.438,45.072,45.000,0.00,0.08,-272.73,-272.80,-2,522,-949,15.5,6.0,-21.9,15.8,6.1,-21.5,5.73,1.94,-19.5,22.3
2016-04-09 01:41:00,0.0,1.93997,0.00030,408.037,0.042,0.1334,0.0023,140.000,45.000,31616.84920,1.94252,408.694,31.438,45.072,45.000,0.00,0.08,-272.74,-272.79,-1,522,-949,15.5,5.8,-22.4,15.8,5.9,-21.9,5.73,2.17,-19.4,22.4
2016-04-09 01:42:00,0.0,1.94012,0.00033,408.110,0.033,0.1258,0.0037,139.997,45.000,31615.70900,1.94253,408.729,31.439,45.071,45.000,0.00,0.09,-272.74,-272.79,-1,522,-949,15.5,5.4,-23.0,15.8,5.6,-22.5,5.73,2.00,-19.4,22.3
2016-04-09 01:43:00,0.0,1.94061,0.00037,408.101,0.036,0.1178,0.0022,140.001,45.000,31615.14740,1.94287,408.680,31.454,45.071,45.000,0.00,0.08,-272.74,-272.80,-2,522,-949,15.5,5.1,-23.9,15.8,5.2,-23.3,5.73,1.91,-19.4,22.3
2016-04-09 01:44:00,0.0,1.94015,0.00032,408.192,0.092,0.1129,0.0025,139.999,45.000,31615.68111,1.94233,408.744,31.472,45.071,45.000,0.00,0.09,-272.73,-272.80,-1,522,-949,15.5,4.8,-24.4,15.8,5.0,-23.9,5.73,2.14,-19.4,22.3
2016-04-09 01:45:00,0.0,1.93969,0.00044,408.348,0.024,0.1117,0.0016,140.004,45.000,31617.61185,1.94185,408.898,31.490,45.071,45.000,0.00,0.09,-272.74,-272.80,-1,523,-949,15.4,4.8,-24.6,15.8,4.9,-24.1,5.73,2.06,-19.4,22.3